This is the latest recevied weather packets stored in our database for station/object DL1DH-17. If no packets are shown the sender has not sent any weather packets the latest 10 day(s).
| Time | Temp. | Humidity | Pressure | Rain* | Wind** | Luminosity | Snow |
|---|---|---|---|---|---|---|---|
| 1777717329 | 17.22° C | 43% | 982.7 hPa | - | - | - | - |
| 1777716489 | 17.22° C | 45% | 982.8 hPa | - | - | - | - |
| 1777715649 | 17.22° C | 45% | 982.9 hPa | - | - | - | - |
| 1777714808 | 16.11° C | 46% | 983.1 hPa | - | - | - | - |
| 1777713968 | 16.11° C | 47% | 983.1 hPa | - | - | - | - |
| 1777713128 | 15.56° C | 48% | 983.3 hPa | - | - | - | - |
| 1777712288 | 15.56° C | 48% | 983.4 hPa | - | - | - | - |
| 1777711448 | 15° C | 48% | 983.5 hPa | - | - | - | - |
| 1777710608 | 15° C | 49% | 983.7 hPa | - | - | - | - |
| 1777709768 | 14.44° C | 49% | 983.5 hPa | - | - | - | - |
| 1777708928 | 14.44° C | 49% | 983.6 hPa | - | - | - | - |
| 1777708088 | 14.44° C | 48% | 983.7 hPa | - | - | - | - |
| 1777707248 | 13.89° C | 48% | 983.9 hPa | - | - | - | - |
| 1777706408 | 13.89° C | 49% | 983.9 hPa | - | - | - | - |
| 1777705567 | 13.33° C | 49% | 983.9 hPa | - | - | - | - |
| 1777704727 | 13.33° C | 51% | 984 hPa | - | - | - | - |
| 1777703887 | 12.78° C | 52% | 984 hPa | - | - | - | - |
| 1777703047 | 12.22° C | 53% | 984.1 hPa | - | - | - | - |
| 1777702207 | 11.67° C | 54% | 984 hPa | - | - | - | - |
| 1777701367 | 11.11° C | 57% | 984.2 hPa | - | - | - | - |
| 1777700527 | 10.56° C | 56% | 984.2 hPa | - | - | - | - |
| 1777699687 | 10.56° C | 56% | 984.1 hPa | - | - | - | - |
| 1777698847 | 10° C | 55% | 984.1 hPa | - | - | - | - |
| 1777698006 | 10° C | 55% | 984.1 hPa | - | - | - | - |
| 1777697166 | 9.44° C | 56% | 984.2 hPa | - | - | - | - |
* Rain since midnight (hover to see other rain measurements)
** Current wind speed in m/s (hover to see current wind gust speed)